Time,TemperatureF,DewpointF,PressureIn,WindDirection,WindDirectionDegrees,WindSpeedMPH,WindSpeedGustMPH,Humidity,HourlyPrecipIn,Conditions,Clouds,dailyrainin,SoftwareType,DateUTC
2013-05-11 00:10:00,63.2,62.0,29.85,WSW,250,0.0,1.0,95,0.01,,,0.56,weatherlink.com 1.10,2013-05-11 04:10:00,
2013-05-11 00:25:00,63.1,62.0,29.84,West,268,0.0,0.0,95,0.01,,,0.56,weatherlink.com 1.10,2013-05-11 04:25:00,
2013-05-11 00:40:00,63.0,62.0,29.85,North,4,0.0,2.0,95,0.03,,,0.58,weatherlink.com 1.10,2013-05-11 04:40:00,
2013-05-11 00:55:00,62.7,61.0,29.85,West,267,0.0,1.0,95,0.05,,,0.61,weatherlink.com 1.10,2013-05-11 04:55:00,
2013-05-11 01:10:00,62.2,61.0,29.85,ENE,62,1.0,2.0,95,0.08,,,0.64,weatherlink.com 1.10,2013-05-11 05:10:00,
2013-05-11 01:25:00,62.0,61.0,29.85,ENE,59,0.0,0.0,95,0.09,,,0.65,weatherlink.com 1.10,2013-05-11 05:25:00,
2013-05-11 01:40:00,61.4,60.0,29.86,WNW,293,0.0,4.0,94,0.07,,,0.65,weatherlink.com 1.10,2013-05-11 05:40:00,
2013-05-11 01:55:00,60.8,59.0,29.86,SE,129,0.0,2.0,93,0.04,,,0.65,weatherlink.com 1.10,2013-05-11 05:55:00,
2013-05-11 02:10:00,60.3,58.0,29.86,NE,44,0.0,1.0,93,0.01,,,0.65,weatherlink.com 1.10,2013-05-11 06:10:00,
2013-05-11 02:25:00,60.2,59.0,29.86,WNW,285,0.0,3.0,94,0.00,,,0.65,weatherlink.com 1.10,2013-05-11 06:25:00,
2013-05-11 02:40:00,60.1,58.0,29.86,NW,312,0.0,1.0,94,0.00,,,0.65,weatherlink.com 1.10,2013-05-11 06:40:00,
2013-05-11 02:55:00,59.6,58.0,29.86,North,352,0.0,2.0,93,0.00,,,0.65,weatherlink.com 1.10,2013-05-11 06:55:00,
2013-05-11 03:10:00,59.4,57.0,29.86,NNE,23,0.0,3.0,93,0.00,,,0.65,weatherlink.com 1.10,2013-05-11 07:10:00,
2013-05-11 03:25:00,59.2,57.0,29.86,NW,309,0.0,4.0,92,0.00,,,0.65,weatherlink.com 1.10,2013-05-11 07:25:00,
2013-05-11 03:40:00,58.9,57.0,29.86,North,9,0.0,2.0,92,0.00,,,0.65,weatherlink.com 1.10,2013-05-11 07:40:00,
2013-05-11 03:55:00,58.7,57.0,29.86,NNE,15,0.0,1.0,93,0.00,,,0.65,weatherlink.com 1.10,2013-05-11 07:55:00,
2013-05-11 04:10:00,58.6,57.0,29.86,NNE,15,0.0,1.0,93,0.00,,,0.65,weatherlink.com 1.10,2013-05-11 08:10:00,
2013-05-11 04:25:00,58.3,56.0,29.86,NNE,13,0.0,4.0,93,0.00,,,0.65,weatherlink.com 1.10,2013-05-11 08:25:00,
2013-05-11 04:40:00,58.2,56.0,29.86,NW,319,0.0,3.0,93,0.00,,,0.65,weatherlink.com 1.10,2013-05-11 08:40:00,
2013-05-11 04:55:00,58.0,56.0,29.87,NE,36,2.0,3.0,93,0.00,,,0.65,weatherlink.com 1.10,2013-05-11 08:55:00,
2013-05-11 05:10:00,57.9,56.0,29.86,NNE,26,0.0,2.0,93,0.00,,,0.65,weatherlink.com 1.10,2013-05-11 09:10:00,
2013-05-11 05:25:00,56.7,55.0,29.87,NNE,22,3.0,7.0,92,0.00,,,0.65,weatherlink.com 1.10,2013-05-11 09:25:00,
2013-05-11 05:40:00,55.7,54.0,29.87,NE,39,0.0,8.0,92,0.00,,,0.65,weatherlink.com 1.10,2013-05-11 09:40:00,
2013-05-11 05:55:00,55.2,53.0,29.87,North,6,2.0,5.0,93,0.00,,,0.65,weatherlink.com 1.10,2013-05-11 09:55:00,
2013-05-11 06:11:00,55.1,53.0,29.88,NE,39,3.0,4.0,93,0.00,,,0.65,weatherlink.com 1.10,2013-05-11 10:11:00,
2013-05-11 06:26:00,54.5,53.0,29.88,WSW,255,0.0,6.0,93,0.00,,,0.65,weatherlink.com 1.10,2013-05-11 10:26:00,
2013-05-11 06:41:00,54.1,52.0,29.88,NE,43,2.0,5.0,92,0.00,,,0.65,weatherlink.com 1.10,2013-05-11 10:41:00,
2013-05-11 06:56:00,54.1,52.0,29.88,North,9,3.0,4.0,92,0.00,,,0.65,weatherlink.com 1.10,2013-05-11 10:56:00,
2013-05-11 07:11:00,53.6,51.0,29.89,NNE,18,0.0,6.0,90,0.00,,,0.65,weatherlink.com 1.10,2013-05-11 11:11:00,
2013-05-11 07:26:00,53.3,50.0,29.89,East,95,1.0,3.0,89,0.00,,,0.65,weatherlink.com 1.10,2013-05-11 11:26:00,
2013-05-11 07:41:00,53.2,50.0,29.89,NNE,13,2.0,2.0,88,0.00,,,0.65,weatherlink.com 1.10,2013-05-11 11:41:00,
2013-05-11 07:56:00,53.0,49.0,29.90,NW,309,1.0,4.0,87,0.00,,,0.65,weatherlink.com 1.10,2013-05-11 11:56:00,
2013-05-11 08:11:00,52.9,50.0,29.90,North,352,2.0,3.0,88,0.00,,,0.65,weatherlink.com 1.10,2013-05-11 12:11:00,
2013-05-11 08:26:00,52.8,50.0,29.91,NNE,29,0.0,3.0,89,0.00,,,0.65,weatherlink.com 1.10,2013-05-11 12:26:00,
2013-05-11 08:41:00,52.9,50.0,29.91,NNE,26,1.0,2.0,88,0.00,,,0.65,weatherlink.com 1.10,2013-05-11 12:41:00,
2013-05-11 08:56:00,53.0,50.0,29.92,NNE,32,2.0,3.0,88,0.00,,,0.65,weatherlink.com 1.10,2013-05-11 12:56:00,
2013-05-11 09:11:00,53.1,50.0,29.92,NNE,23,2.0,4.0,89,0.00,,,0.65,weatherlink.com 1.10,2013-05-11 13:11:00,
2013-05-11 09:26:00,53.3,50.0,29.92,NE,50,0.0,4.0,89,0.00,,,0.65,weatherlink.com 1.10,2013-05-11 13:26:00,
2013-05-11 09:56:00,54.1,50.0,29.92,NNW,344,0.0,3.0,87,0.00,,,0.65,weatherlink.com 1.10,2013-05-11 13:56:00,
2013-05-11 10:11:00,54.1,50.0,29.92,West,276,1.0,3.0,87,0.00,,,0.65,weatherlink.com 1.10,2013-05-11 14:11:00,
2013-05-11 10:56:00,54.7,51.0,29.91,NE,39,0.0,3.0,86,0.00,,,0.65,weatherlink.com 1.10,2013-05-11 14:56:00,
2013-05-11 11:11:00,54.9,51.0,29.91,WSW,253,0.0,8.0,85,0.00,,,0.65,weatherlink.com 1.10,2013-05-11 15:11:00,
2013-05-11 11:26:00,54.9,50.0,29.92,WSW,250,0.0,4.0,82,0.00,,,0.65,weatherlink.com 1.10,2013-05-11 15:26:00,
2013-05-11 11:41:00,55.3,50.0,29.93,WSW,248,0.0,5.0,83,0.00,,,0.65,weatherlink.com 1.10,2013-05-11 15:41:00,
2013-05-11 11:56:00,55.0,49.0,29.93,West,276,3.0,8.0,81,0.00,,,0.65,weatherlink.com 1.10,2013-05-11 15:56:00,
2013-05-11 12:11:00,55.2,50.0,29.93,WSW,242,0.0,5.0,82,0.00,,,0.65,weatherlink.com 1.10,2013-05-11 16:11:00,
2013-05-11 12:26:00,55.2,50.0,29.93,NW,314,0.0,5.0,83,0.00,,,0.65,weatherlink.com 1.10,2013-05-11 16:26:00,
2013-05-11 12:41:00,55.6,50.0,29.93,West,270,4.0,6.0,81,0.00,,,0.65,weatherlink.com 1.10,2013-05-11 16:41:00,
2013-05-11 12:56:00,55.9,50.0,29.93,WSW,255,0.0,6.0,80,0.00,,,0.65,weatherlink.com 1.10,2013-05-11 16:56:00,
2013-05-11 13:11:00,56.6,51.0,29.93,NE,41,3.0,7.0,80,0.00,,,0.65,weatherlink.com 1.10,2013-05-11 17:11:00,
2013-05-11 13:26:00,56.3,50.0,29.93,West,280,3.0,6.0,79,0.00,,,0.00,weatherlink.com 1.10,2013-05-11 17:26:00,
2013-05-11 13:41:00,56.3,50.0,29.93,West,271,0.0,5.0,78,0.00,,,0.00,weatherlink.com 1.10,2013-05-11 17:41:00,
2013-05-11 13:56:00,57.0,50.0,29.93,WNW,295,2.0,7.0,77,0.00,,,0.00,weatherlink.com 1.10,2013-05-11 17:56:00,
2013-05-11 14:11:00,57.4,50.0,29.93,WNW,285,2.0,7.0,77,0.00,,,0.00,weatherlink.com 1.10,2013-05-11 18:11:00,
2013-05-11 14:26:00,58.6,50.0,29.93,WNW,284,5.0,8.0,74,0.00,,,0.00,weatherlink.com 1.10,2013-05-11 18:26:00,
2013-05-11 14:41:00,58.7,50.0,29.93,West,276,1.0,9.0,73,0.00,,,0.00,weatherlink.com 1.10,2013-05-11 18:41:00,
2013-05-11 14:56:00,59.3,51.0,29.93,WSW,240,1.0,8.0,73,0.00,,,0.00,weatherlink.com 1.10,2013-05-11 18:56:00,
2013-05-11 15:12:00,59.3,51.0,29.92,WSW,240,2.0,7.0,74,0.00,,,0.00,weatherlink.com 1.10,2013-05-11 19:12:00,
2013-05-11 15:26:00,59.9,51.0,29.93,WNW,294,2.0,7.0,72,0.00,,,0.00,weatherlink.com 1.10,2013-05-11 19:26:00,
2013-05-11 15:57:00,61.3,51.0,29.92,NE,38,2.0,8.0,68,0.00,,,0.00,weatherlink.com 1.10,2013-05-11 19:57:00,
2013-05-11 16:12:00,61.6,50.0,29.91,WSW,242,3.0,12.0,67,0.00,,,0.00,weatherlink.com 1.10,2013-05-11 20:12:00,
2013-05-11 16:27:00,63.0,51.0,29.91,NNW,327,1.0,9.0,66,0.00,,,0.00,weatherlink.com 1.10,2013-05-11 20:27:00,
2013-05-11 16:42:00,63.6,51.0,29.91,NE,43,4.0,9.0,64,0.00,,,0.00,weatherlink.com 1.10,2013-05-11 20:42:00,
2013-05-11 16:57:00,63.6,51.0,29.91,WNW,294,2.0,9.0,64,0.00,,,0.00,weatherlink.com 1.10,2013-05-11 20:57:00,
2013-05-11 17:12:00,64.2,51.0,29.90,West,270,3.0,9.0,63,0.00,,,0.00,weatherlink.com 1.10,2013-05-11 21:12:00,
2013-05-11 17:27:00,64.8,52.0,29.91,WSW,238,0.0,8.0,63,0.00,,,0.00,weatherlink.com 1.10,2013-05-11 21:27:00,
2013-05-11 17:42:00,65.4,52.0,29.91,West,278,1.0,6.0,62,0.00,,,0.00,weatherlink.com 1.10,2013-05-11 21:42:00,
2013-05-11 17:57:00,64.6,52.0,29.91,WNW,288,2.0,8.0,63,0.00,,,0.00,weatherlink.com 1.10,2013-05-11 21:57:00,
2013-05-11 18:12:00,65.6,52.0,29.90,WNW,291,0.0,8.0,61,0.00,,,0.00,weatherlink.com 1.10,2013-05-11 22:12:00,
2013-05-11 18:27:00,65.6,51.0,29.89,West,266,1.0,6.0,60,0.00,,,0.00,weatherlink.com 1.10,2013-05-11 22:27:00,
2013-05-11 18:42:00,65.7,52.0,29.89,SSE,162,1.0,5.0,61,0.00,,,0.00,weatherlink.com 1.10,2013-05-11 22:42:00,
2013-05-11 18:57:00,64.9,51.0,29.89,West,263,1.0,7.0,61,0.00,,,0.00,weatherlink.com 1.10,2013-05-11 22:57:00,
2013-05-11 19:12:00,64.1,52.0,29.88,SSW,210,0.0,2.0,65,0.00,,,0.00,weatherlink.com 1.10,2013-05-11 23:12:00,
2013-05-11 19:27:00,63.5,52.0,29.88,WSW,245,0.0,4.0,66,0.00,,,0.00,weatherlink.com 1.10,2013-05-11 23:27:00,
2013-05-11 19:42:00,63.2,52.0,29.88,WSW,246,0.0,3.0,68,0.00,,,0.00,weatherlink.com 1.10,2013-05-11 23:42:00,
2013-05-11 20:27:00,61.7,53.0,29.90,WNW,286,2.0,5.0,73,0.00,,,0.00,weatherlink.com 1.10,2013-05-12 00:27:00,
2013-05-11 20:42:00,60.6,54.0,29.91,NW,308,3.0,8.0,79,0.01,,,0.01,weatherlink.com 1.10,2013-05-12 00:42:00,
2013-05-11 20:57:00,59.0,54.0,29.91,WNW,288,0.0,4.0,84,0.02,,,0.02,weatherlink.com 1.10,2013-05-12 00:57:00,
2013-05-11 21:12:00,58.0,54.0,29.92,WNW,289,0.0,1.0,87,0.02,,,0.02,weatherlink.com 1.10,2013-05-12 01:12:00,
2013-05-11 21:27:00,58.2,54.0,29.92,SW,236,0.0,6.0,85,0.02,,,0.02,weatherlink.com 1.10,2013-05-12 01:27:00,
2013-05-11 21:42:00,58.2,53.0,29.93,NNE,32,0.0,6.0,84,0.01,,,0.02,weatherlink.com 1.10,2013-05-12 01:42:00,
2013-05-11 21:57:00,57.5,53.0,29.95,West,262,2.0,4.0,84,0.00,,,0.02,weatherlink.com 1.10,2013-05-12 01:57:00,
2013-05-11 22:27:00,56.5,44.0,29.97,NNE,20,2.0,9.0,63,0.00,,,0.02,weatherlink.com 1.10,2013-05-12 02:27:00,
2013-05-11 22:42:00,55.2,45.0,29.97,West,262,0.0,2.0,68,0.00,,,0.02,weatherlink.com 1.10,2013-05-12 02:42:00,
2013-05-11 22:57:00,54.3,44.0,29.98,WSW,257,0.0,3.0,68,0.00,,,0.02,weatherlink.com 1.10,2013-05-12 02:57:00,
2013-05-11 23:12:00,53.8,43.0,29.99,North,360,0.0,2.0,66,0.00,,,0.02,weatherlink.com 1.10,2013-05-12 03:12:00,
2013-05-11 23:27:00,53.3,41.0,30.00,North,9,8.0,8.0,64,0.00,,,0.02,weatherlink.com 1.10,2013-05-12 03:27:00,
2013-05-11 23:42:00,53.0,41.0,30.00,West,271,0.0,2.0,64,0.00,,,0.02,weatherlink.com 1.10,2013-05-12 03:42:00,
2013-05-11 23:58:00,52.1,41.0,30.01,NNE,32,1.0,5.0,67,0.00,,,0.02,weatherlink.com 1.10,2013-05-12 03:58:00,